Ashland, WI

1:52 PM CDT on August 24, 2016 (GMT -0500)
Kennedy Memorial

Weather History for KASX - April, 2013

Change the Weather History Date:

Sunday, April 21, 2013

  Actual Average Record
Temperature  
Mean Temperature 28 °F -  
Max Temperature 41 °F 56 °F 81 °F (1980)
Min Temperature 15 °F 30 °F 15 °F (1978)
Degree Days  
Heating Degree Days 37    
Moisture  
Dew Point 25 °F    
Average Humidity 76    
Maximum Humidity 88    
Minimum Humidity 62    
Precipitation  
Precipitation 0.05 in - - ()
Sea Level Pressure  
Sea Level Pressure 30.26 in    
Wind  
Wind Speed 5 mph (South)    
Max Wind Speed 15 mph    
Max Gust Speed 29 mph    
Visibility 10 miles    
Events Rain    
Averages and records for this station are not official NWS values.
T = Trace of Precipitation, MM = Missing Value Source: NWS Daily Summary

Daily Weather History Graph

Daily Weather History Graph

Search for Another Location

Airport or City:

Trip Planner

Search our weather history database for the weather conditions in past years. The results will help you decide how hot, cold, wet, or windy it might be!

Date:

Astronomy

Apr. 21, 2013 Rise Set
Actual Time 6:05 AM CDT 8:00 PM CDT
Civil Twilight 5:33 AM CDT 8:32 PM CDT
Nautical Twilight 4:53 AM CDT 9:12 PM CDT
Astronomical Twilight 4:10 AM CDT 9:56 PM CDT
Moon 3:31 PM CDT (4/21) 3:43 AM CDT (4/21)
Length of Visible Light 14h 59m
Length of Day
13h 54m
Waxing Gibbous, 80% of the Moon is Illuminated
Apr 21
Waxing Gibbous
Apr 25
Full
May 2
Last Quarter
May 9
New
May 17
First Quarter

Hourly Weather History & Observations

Time (CDT) Temp. Windchill Dew Point Humidity Pressure Visibility Wind Dir Wind Speed Gust Speed Precip Events Conditions
12:53 AM 17.1 °F - 12.9 °F 84% 30.41 in 10.0 mi Calm Calm - N/A   Clear
1:53 AM 18.0 °F - 14.0 °F 84% 30.41 in 10.0 mi Calm Calm - N/A   Clear
2:53 AM 15.1 °F - 12.0 °F 88% 30.41 in 10.0 mi Calm Calm - N/A   Clear
3:53 AM 16.0 °F - 12.9 °F 88% 30.40 in 10.0 mi Calm Calm - N/A   Clear
4:53 AM 16.0 °F - 12.0 °F 84% 30.40 in 10.0 mi Calm Calm - N/A   Clear
5:53 AM 15.1 °F - 12.0 °F 88% 30.40 in 10.0 mi Calm Calm - N/A   Partly Cloudy
6:53 AM 17.1 °F 11.7 °F 12.9 °F 84% 30.40 in 10.0 mi West 3.5 mph - N/A   Mostly Cloudy
7:53 AM 23.0 °F - 18.0 °F 81% 30.40 in 10.0 mi Calm Calm - N/A   Overcast
8:53 AM 32.0 °F 27.5 °F 21.9 °F 66% 30.38 in 10.0 mi South 4.6 mph - N/A   Overcast
9:53 AM 36.0 °F 31.1 °F 28.0 °F 73% 30.36 in 10.0 mi South 5.8 mph - N/A   Overcast
10:26 AM 37.4 °F 31.4 °F 28.4 °F 70% 30.31 in 10.0 mi South 8.1 mph 17.3 mph N/A   Overcast
10:53 AM 39.0 °F 31.8 °F 28.9 °F 67% 30.34 in 10.0 mi South 11.5 mph 24.2 mph N/A   Overcast
11:53 AM 39.9 °F 31.8 °F 30.0 °F 68% 30.31 in 10.0 mi South 15.0 mph 25.3 mph N/A   Overcast
12:53 PM 39.0 °F 31.0 °F 30.0 °F 70% 30.28 in 10.0 mi South 13.8 mph 21.9 mph N/A   Overcast
1:53 PM 39.0 °F 31.4 °F 30.0 °F 70% 30.25 in 10.0 mi South 12.7 mph 27.6 mph N/A   Overcast
2:53 PM 39.9 °F 32.5 °F 30.0 °F 68% 30.21 in 10.0 mi South 12.7 mph 24.2 mph N/A   Overcast
3:53 PM 41.0 °F 33.1 °F 28.9 °F 62% 30.18 in 10.0 mi South 15.0 mph 28.8 mph N/A   Overcast
4:53 PM 39.9 °F 32.5 °F 30.0 °F 68% 30.17 in 10.0 mi South 12.7 mph 20.7 mph N/A   Overcast
5:53 PM 39.9 °F 33.4 °F 30.0 °F 68% 30.15 in 10.0 mi South 10.4 mph 19.6 mph N/A   Overcast
6:21 PM 39.2 °F 32.0 °F 30.2 °F 70% 30.10 in 10.0 mi South 11.5 mph 20.7 mph N/A   Overcast
6:53 PM 39.9 °F 32.9 °F 30.0 °F 68% 30.12 in 10.0 mi South 11.5 mph 21.9 mph N/A   Overcast
7:53 PM 37.9 °F 30.9 °F 32.0 °F 79% 30.11 in 5.0 mi South 10.4 mph 19.6 mph 0.02 in Rain Light Rain
8:53 PM 37.0 °F 31.0 °F 33.1 °F 86% 30.10 in 8.0 mi South 8.1 mph - 0.03 in   Overcast
9:53 PM 39.0 °F 31.8 °F 34.0 °F 82% 30.09 in 10.0 mi South 11.5 mph 23.0 mph N/A   Overcast
10:53 PM 39.9 °F 32.9 °F 34.0 °F 79% 30.09 in 10.0 mi SSW 11.5 mph 20.7 mph N/A   Overcast
11:29 PM 41.0 °F 34.3 °F 35.6 °F 81% 30.06 in 10.0 mi SSW 11.5 mph 21.9 mph N/A   Overcast
11:53 PM 39.9 °F 33.9 °F 35.1 °F 83% 30.09 in 10.0 mi SSW 9.2 mph - N/A   Overcast